TimeCDT,TemperatureF,Dew PointF,Humidity,Sea Level PressureIn,VisibilityMPH,Wind Direction,Wind SpeedMPH,Gust SpeedMPH,PrecipitationIn,Events,Conditions,WindDirDegrees,DateUTC
12:20 AM,30.9,28.9,92,30.13,1.2,NE,13.8,24.2,0.05,Snow,Light Snow,50,2014-03-16 05:20:00
12:29 AM,30.9,28.9,92,30.13,3.0,NE,12.7,-,0.05,Snow,Light Snow,50,2014-03-16 05:29:00
12:53 AM,32.0,27.0,82,30.16,9.0,NE,21.9,27.6,0.05,,Overcast,50,2014-03-16 05:53:00
1:33 AM,32.0,28.0,85,30.16,10.0,NE,23.0,31.1,0.00,,Overcast,40,2014-03-16 06:33:00
1:53 AM,32.0,28.0,85,30.17,10.0,NE,21.9,28.8,0.00,,Overcast,40,2014-03-16 06:53:00
2:30 AM,30.9,28.0,89,30.17,2.0,NE,17.3,28.8,0.01,Snow,Light Snow,40,2014-03-16 07:30:00
2:44 AM,30.0,28.0,92,30.18,1.8,NE,16.1,25.3,0.01,Snow,Light Snow,40,2014-03-16 07:44:00
2:53 AM,30.0,28.0,92,30.20,0.8,NE,13.8,-,0.02,Snow,Light Snow,40,2014-03-16 07:53:00
3:10 AM,30.0,27.0,88,30.18,1.2,NE,17.3,25.3,0.01,Snow,Light Snow,40,2014-03-16 08:10:00
3:24 AM,28.9,27.0,92,30.17,2.0,NE,23.0,31.1,0.01,Snow,Light Snow,40,2014-03-16 08:24:00
3:43 AM,28.9,27.0,92,30.18,2.5,NE,17.3,26.5,0.02,Snow,Light Snow,40,2014-03-16 08:43:00
3:53 AM,28.9,26.1,89,30.19,1.5,NNE,18.4,-,0.02,Snow,Light Snow,30,2014-03-16 08:53:00
4:07 AM,28.9,26.1,89,30.18,2.0,NNE,16.1,-,0.00,Snow,Light Snow,30,2014-03-16 09:07:00
4:17 AM,28.0,25.0,88,30.18,4.0,NNE,17.3,24.2,0.00,Snow,Light Snow,20,2014-03-16 09:17:00
4:43 AM,28.0,24.1,85,30.18,7.0,NNE,16.1,25.3,0.00,Snow,Light Snow,20,2014-03-16 09:43:00
4:53 AM,28.0,24.1,85,30.20,7.0,NNE,16.1,24.2,0.00,Snow,Light Snow,30,2014-03-16 09:53:00
5:21 AM,27.0,23.0,85,30.18,2.5,NNE,18.4,26.5,0.00,Snow,Light Snow,20,2014-03-16 10:21:00
5:47 AM,26.6,23.0,86,30.19,3.0,NNE,16.1,-,0.00,Snow,Light Snow,20,2014-03-16 10:47:00
5:53 AM,26.1,23.0,88,30.22,4.0,NNE,17.3,-,0.00,Snow,Light Snow,20,2014-03-16 10:53:00
6:03 AM,26.1,21.9,84,30.19,9.0,NNE,16.1,25.3,0.00,,Overcast,20,2014-03-16 11:03:00
6:53 AM,26.1,19.0,75,30.22,10.0,NNE,18.4,25.3,0.00,,Overcast,20,2014-03-16 11:53:00
7:19 AM,25.0,18.0,75,30.21,10.0,NNE,19.6,-,N/A,,Overcast,20,2014-03-16 12:19:00
7:53 AM,25.0,17.1,72,30.25,10.0,NNE,19.6,25.3,N/A,,Mostly Cloudy,30,2014-03-16 12:53:00
8:53 AM,26.1,18.0,71,30.28,10.0,NNE,16.1,24.2,N/A,,Overcast,30,2014-03-16 13:53:00
9:53 AM,26.1,19.0,75,30.30,10.0,NNE,18.4,24.2,N/A,,Overcast,30,2014-03-16 14:53:00
10:53 AM,26.1,19.0,75,30.33,10.0,NNE,15.0,-,N/A,,Overcast,20,2014-03-16 15:53:00
11:53 AM,28.0,19.9,72,30.36,10.0,NE,16.1,24.2,N/A,,Overcast,40,2014-03-16 16:53:00
12:53 PM,30.9,19.9,64,30.32,10.0,ENE,13.8,18.4,N/A,,Mostly Cloudy,60,2014-03-16 17:53:00
1:07 PM,30.9,19.9,64,30.28,10.0,NE,15.0,20.7,N/A,,Scattered Clouds,50,2014-03-16 18:07:00
1:53 PM,32.0,19.0,59,30.30,10.0,ENE,18.4,24.2,N/A,,Partly Cloudy,60,2014-03-16 18:53:00
2:53 PM,34.0,19.0,54,30.25,10.0,ENE,13.8,20.7,N/A,,Partly Cloudy,70,2014-03-16 19:53:00
3:53 PM,35.1,18.0,50,30.22,10.0,North,12.7,-,N/A,,Partly Cloudy,10,2014-03-16 20:53:00
4:53 PM,35.1,16.0,46,30.21,10.0,NNE,10.4,-,N/A,,Clear,20,2014-03-16 21:53:00
5:53 PM,34.0,15.1,46,30.20,10.0,NE,10.4,-,N/A,,Clear,40,2014-03-16 22:53:00
6:53 PM,30.9,14.0,50,30.20,10.0,NNE,8.1,-,N/A,,Clear,20,2014-03-16 23:53:00
7:53 PM,27.0,12.9,56,30.21,10.0,NNE,6.9,-,N/A,,Clear,20,2014-03-17 00:53:00
8:53 PM,25.0,12.9,60,30.22,10.0,NNE,6.9,-,N/A,,Clear,30,2014-03-17 01:53:00
9:53 PM,24.1,12.9,62,30.19,10.0,ENE,5.8,-,N/A,,Clear,70,2014-03-17 02:53:00
10:53 PM,24.1,12.9,62,30.17,10.0,East,4.6,-,N/A,,Clear,80,2014-03-17 03:53:00
11:53 PM,23.0,14.0,68,30.14,10.0,SE,6.9,-,N/A,,Clear,140,2014-03-17 04:53:00